This is the latest recevied weather packets stored in our database for station/object KC5DP. If no packets are shown the sender has not sent any weather packets the latest 10 day(s).
| Time | Temp. | Humidity | Pressure | Rain* | Wind** | Luminosity | Snow |
|---|---|---|---|---|---|---|---|
| 1777524299 | 19.44° C | 98% | 1013.3 hPa | 6.1 mm | - | 0 W/m² | - |
| 1777523995 | 19.44° C | 98% | 1013.4 hPa | 4.83 mm | - | 0 W/m² | - |
| 1777523691 | 19.44° C | 98% | 1013.7 hPa | 4.32 mm | - | 0 W/m² | - |
| 1777523387 | 19.44° C | 98% | 1013.4 hPa | 6.1 mm | - | 0 W/m² | - |
| 1777523084 | 19.44° C | 98% | 1013.3 hPa | 6.1 mm | - | 0 W/m² | - |
| 1777522780 | 19.44° C | 98% | 1013 hPa | 6.6 mm | - | 0 W/m² | - |
| 1777522477 | 19.44° C | 98% | 1013.7 hPa | 6.6 mm | - | 0 W/m² | - |
| 1777522175 | 19.44° C | 98% | 1013.9 hPa | 6.1 mm | - | 0 W/m² | - |
| 1777521871 | 19.44° C | 98% | 1014 hPa | 4.32 mm | - | 0 W/m² | - |
| 1777521567 | 19.44° C | 98% | 1013.8 hPa | 6.1 mm | - | 0 W/m² | - |
| 1777521265 | 19.44° C | 98% | 1014.1 hPa | 9.65 mm | - | 0 W/m² | - |
| 1777520961 | 19.44° C | 98% | 1014.2 hPa | 7.87 mm | - | 0 W/m² | - |
| 1777520659 | 19.44° C | 98% | 1014 hPa | 6.1 mm | - | 0 W/m² | - |
| 1777520355 | 19.44° C | 97% | 1014.3 hPa | 6.1 mm | - | 0 W/m² | - |
| 1777520053 | 19.44° C | 97% | 1014.4 hPa | 6.1 mm | - | 0 W/m² | - |
| 1777519750 | 20° C | 97% | 1014.3 hPa | 4.32 mm | - | 0 W/m² | - |
| 1777519447 | 20° C | 97% | 1014.3 hPa | 3.05 mm | - | 0 W/m² | - |
| 1777519144 | 20° C | 97% | 1014.8 hPa | 4.83 mm | - | 0 W/m² | - |
| 1777518838 | 20° C | 97% | 1014.4 hPa | 4.83 mm | - | 0 W/m² | - |
| 1777518535 | 20° C | 97% | 1014.3 hPa | 3.05 mm | - | 0 W/m² | - |
| 1777518231 | 20° C | 97% | 1014 hPa | 3.05 mm | - | 0 W/m² | - |
| 1777517928 | 20° C | 97% | 1013.9 hPa | 3.05 mm | - | 0 W/m² | - |
| 1777517623 | 20° C | 97% | 1013.5 hPa | 3.05 mm | - | 0 W/m² | - |
| 1777517321 | 20° C | 96% | 1013.6 hPa | 3.05 mm | - | 0 W/m² | - |
| 1777517020 | 20° C | 96% | 1013.6 hPa | 1.27 mm | - | 0 W/m² | - |
* Rain latest hour (hover to see other rain measurements)
** Current wind speed in m/s (hover to see current wind gust speed)